Simultaneous Nadir Overpasses (SNOs) Predictions

Prediction of SNOs between GOES-15 and LANDSAT-8 Satellite Orbit:

Table of predicted SNOs for the next 14.0 days since TLE Epoch: 8/17/2024
Index Date Time (GOES-15) GOES-15 Lat,Lon LANDSAT-8 Lat,Lon Distance(km) Time Diff (sec)
1 08/18/2024 05:58:56 -0.18, 61.66 -0.59, 63.51 211.66 80
2 08/18/2024 18:17:41 0.21, 61.76 -0.50, 58.32 390.72 80
3 08/20/2024 18:05:30 0.21, 61.73 0.09, 61.28 51.68 80
4 08/22/2024 17:55:59 0.21, 61.71 0.73, 64.24 287.64 80
5 08/23/2024 06:14:36 -0.24, 61.59 0.27, 59.06 286.82 80
6 08/25/2024 06:05:03 -0.23, 61.57 -0.31, 62.04 52.50 80
7 08/27/2024 05:52:50 -0.22, 61.56 -0.94, 65.00 391.53 80
8 08/27/2024 18:11:34 0.25, 61.66 -0.15, 59.81 210.41 80
9 08/29/2024 18:02:00 0.24, 61.65 0.49, 62.78 128.52 80
10 08/30/2024 06:20:34 -0.27, 61.55 0.59, 57.63 446.39 80
